Starlink 3564

operational
NORAD ID: 52302 Int'l Des: 2022-041 Owner: SPXS Country: US Constellation: starlink
LEOCIRCULAR

About Starlink 3564

Description loading...

Live Position

Loading 3D Globe...

Upcoming Passes

Altitude History

Altitude vs Time

uPlot chart will show altitude changes over time

Two-Line Element Set

1 52302U 22041AT 25304.28066703 .00001092 00000-0 86668-4 0 9997
2 52302 53.2183 310.0585 0001557 79.8327 280.2840 15.08841148195102
Epoch: Oct 31, 2025 • Age: 12 hours

Current Status

Altitude 558.7 km
Velocity 7.58 km/s
Sub-Earth Point -51.56°S, 128.08°W
Launch Date Apr 21, 2022
Age 3.5 years
Type internet

Technical Details

Classification Payload
Mass 297.00 kg
Dry Mass 275.00 kg
Total Mass 297.00 kg
Length 0.20 m
Diameter 2.80 m
Span 9.00 m
Shape Box + pan
Manufacturer SPXS
Bus Type Starlink
Phase Status In Orbit
Owner/State SPXS/US

Large Constellations

Loading constellations...